Tiempo cada hora Munsingen

Hoy, 22 Octubre, Jueves

Tiempo Temperatura Precipitaciones Viento Presión Humedad
00:00 +12°C° 0 mm 1 mps 714 mmHg 69%
01:00 +12°C° 0 mm 1 mps 714 mmHg 71%
02:00 +12°C° 0 mm 1 mps 714 mmHg 72%
03:00 +11°C° 0 mm 1 mps 714 mmHg 72%
04:00 +11°C° 0 mm 1 mps 714 mmHg 73%
05:00 +11°C° 0 mm 1 mps 714 mmHg 73%
06:00 +11°C° 0 mm 1 mps 714 mmHg 74%
07:00 +11°C° 0 mm 1 mps 715 mmHg 75%
08:00 +13°C° 0 mm 1 mps 715 mmHg 71%
09:00 +15°C° 0 mm 1 mps 715 mmHg 67%
10:00 +15°C° 0 mm 0 mps 715 mmHg 64%
11:00 +18°C° 0 mm 1 mps 715 mmHg 62%
12:00 +19°C° 0 mm 1 mps 715 mmHg 60%
13:00 +20°C° 0 mm 1 mps 715 mmHg 58%
14:00 +19°C° 0 mm 1 mps 715 mmHg 64%
15:00 +17°C° 0 mm 2 mps 715 mmHg 70%
16:00 +16°C° 0 mm 2 mps 715 mmHg 76%
17:00 +15°C° 0.1 mm 2 mps 715 mmHg 79%
18:00 +15°C° 0.1 mm 2 mps 715 mmHg 81%
19:00 +14°C° 0.1 mm 2 mps 715 mmHg 83%
20:00 +14°C° 0 mm 1 mps 715 mmHg 82%
21:00 +14°C° 0 mm 1 mps 715 mmHg 81%
22:00 +14°C° 0 mm 1 mps 715 mmHg 79%
23:00 +14°C° 0.3 mm 1 mps 714 mmHg 83%

Mañana, 23 Octubre, Viernes

Tiempo Temperatura Precipitaciones Viento Presión Humedad
00:00 +14°C° 0.3 mm 1 mps 714 mmHg 86%
01:00 +13°C° 0.3 mm 1 mps 714 mmHg 90%
02:00 +13°C° 1.2 mm 1 mps 714 mmHg 92%
03:00 +13°C° 1.2 mm 1 mps 713 mmHg 94%
04:00 +13°C° 1.2 mm 1 mps 713 mmHg 95%
05:00 +13°C° 2 mm 1 mps 713 mmHg 96%
06:00 +13°C° 2 mm 1 mps 712 mmHg 96%
07:00 +13°C° 2 mm 1 mps 712 mmHg 96%
08:00 +14°C° 0.5 mm 1 mps 712 mmHg 95%
09:00 +14°C° 0.5 mm 1 mps 712 mmHg 93%
10:00 +15°C° 0.5 mm 1 mps 712 mmHg 92%
11:00 +15°C° 0.7 mm 1 mps 712 mmHg 92%
12:00 +15°C° 0.7 mm 1 mps 712 mmHg 93%
13:00 +15°C° 0.7 mm 1 mps 712 mmHg 93%
14:00 +14°C° 2.9 mm 2 mps 712 mmHg 94%
15:00 +13°C° 2.9 mm 3 mps 712 mmHg 94%
16:00 +12°C° 2.9 mm 3 mps 712 mmHg 95%
17:00 +12°C° 1.1 mm 3 mps 713 mmHg 95%
18:00 +13°C° 1.1 mm 2 mps 713 mmHg 95%
19:00 +13°C° 1.1 mm 2 mps 713 mmHg 95%
20:00 +12°C° 0.1 mm 1 mps 714 mmHg 94%
21:00 +12°C° 0.1 mm 1 mps 714 mmHg 93%
22:00 +11°C° 0.1 mm 1 mps 714 mmHg 93%
23:00 +11°C° 0.3 mm 1 mps 714 mmHg 93%

Pasado mañana, 24 Octubre, Sábado

Tiempo Temperatura Precipitaciones Viento Presión Humedad
00:00 +11°C° 0.3 mm 1 mps 714 mmHg 93%
01:00 +11°C° 0.3 mm 1 mps 714 mmHg 93%
02:00 +11°C° 0.6 mm 1 mps 714 mmHg 94%
03:00 +11°C° 0.6 mm 1 mps 715 mmHg 95%
04:00 +12°C° 0.6 mm 1 mps 715 mmHg 96%
05:00 +12°C° 0.9 mm 1 mps 715 mmHg 96%
06:00 +11°C° 0.9 mm 1 mps 715 mmHg 96%
07:00 +10°C° 0.9 mm 0 mps 715 mmHg 97%
08:00 +11°C° 0.1 mm 0 mps 715 mmHg 94%
09:00 +12°C° 0.1 mm 0 mps 716 mmHg 91%
10:00 +13°C° 0.1 mm 0 mps 716 mmHg 88%
11:00 +14°C° 0.1 mm 0 mps 716 mmHg 84%
12:00 +15°C° 0.1 mm 1 mps 715 mmHg 81%
13:00 +16°C° 0.1 mm 1 mps 715 mmHg 78%
14:00 +16°C° 0.1 mm 1 mps 715 mmHg 80%
15:00 +15°C° 0.1 mm 1 mps 714 mmHg 82%
16:00 +14°C° 0.1 mm 0 mps 714 mmHg 85%
17:00 +13°C° 0 mm 0 mps 714 mmHg 88%
18:00 +11°C° 0 mm 0 mps 714 mmHg 91%
19:00 +10°C° 0 mm 0 mps 714 mmHg 95%
20:00 +11°C° 0 mm 1 mps 714 mmHg 94%
21:00 +10°C° 0 mm 1 mps 714 mmHg 93%
22:00 +10°C° 0 mm 1 mps 714 mmHg 93%
23:00 +10°C° 0 mm 1 mps 713 mmHg 92%

, 25 Octubre, Domingo

Tiempo Temperatura Precipitaciones Viento Presión Humedad
00:00 +10°C° 0 mm 1 mps 713 mmHg 91%
01:00 +9°C° 0 mm 1 mps 713 mmHg 91%
02:00 +9°C° 0 mm 1 mps 713 mmHg 90%
03:00 +9°C° 0 mm 1 mps 713 mmHg 90%
04:00 +9°C° 0 mm 1 mps 712 mmHg 89%
05:00 +9°C° 0 mm 1 mps 712 mmHg 89%
06:00 +9°C° 0 mm 1 mps 712 mmHg 88%
07:00 +8°C° 0 mm 1 mps 712 mmHg 87%
08:00 +10°C° 0 mm 1 mps 712 mmHg 83%
09:00 +12°C° 0 mm 1 mps 711 mmHg 78%
10:00 +14°C° 0 mm 1 mps 711 mmHg 73%
11:00 +16°C° 0 mm 1 mps 711 mmHg 68%
12:00 +18°C° 0 mm 1 mps 711 mmHg 64%
13:00 +19°C° 0 mm 1 mps 710 mmHg 60%
14:00 +18°C° 0 mm 1 mps 710 mmHg 64%
15:00 +18°C° 0 mm 1 mps 709 mmHg 69%
16:00 +16°C° 0 mm 1 mps 708 mmHg 73%
17:00 +14°C° 0 mm 1 mps 708 mmHg 77%
18:00 +13°C° 0 mm 1 mps 708 mmHg 81%
19:00 +11°C° 0 mm 1 mps 708 mmHg 85%
20:00 +10°C° 0 mm 1 mps 708 mmHg 85%
21:00 +10°C° 0 mm 1 mps 707 mmHg 85%
22:00 +10°C° 0 mm 1 mps 707 mmHg 85%
23:00 +10°C° 0 mm 1 mps 707 mmHg 84%

25 Octubre, Domingo

Tiempo Temperatura Precipitaciones Viento Presión Humedad
00:00 +10°C° 0 mm 1 mps 713 mmHg 91%
01:00 +9°C° 0 mm 1 mps 713 mmHg 91%
02:00 +9°C° 0 mm 1 mps 713 mmHg 90%
03:00 +9°C° 0 mm 1 mps 713 mmHg 90%
04:00 +9°C° 0 mm 1 mps 712 mmHg 89%
05:00 +9°C° 0 mm 1 mps 712 mmHg 89%
06:00 +9°C° 0 mm 1 mps 712 mmHg 88%
07:00 +8°C° 0 mm 1 mps 712 mmHg 87%
08:00 +10°C° 0 mm 1 mps 712 mmHg 83%
09:00 +12°C° 0 mm 1 mps 711 mmHg 78%
10:00 +14°C° 0 mm 1 mps 711 mmHg 73%
11:00 +16°C° 0 mm 1 mps 711 mmHg 68%
12:00 +18°C° 0 mm 1 mps 711 mmHg 64%
13:00 +19°C° 0 mm 1 mps 710 mmHg 60%
14:00 +18°C° 0 mm 1 mps 710 mmHg 64%
15:00 +18°C° 0 mm 1 mps 709 mmHg 69%
16:00 +16°C° 0 mm 1 mps 708 mmHg 73%
17:00 +14°C° 0 mm 1 mps 708 mmHg 77%
18:00 +13°C° 0 mm 1 mps 708 mmHg 81%
19:00 +11°C° 0 mm 1 mps 708 mmHg 85%
20:00 +10°C° 0 mm 1 mps 708 mmHg 85%
21:00 +10°C° 0 mm 1 mps 707 mmHg 85%
22:00 +10°C° 0 mm 1 mps 707 mmHg 85%
23:00 +10°C° 0 mm 1 mps 707 mmHg 84%

26 Octubre, Lunes

Tiempo Temperatura Precipitaciones Viento Presión Humedad
00:00 +9°C° 0 mm 1 mps 707 mmHg 84%
01:00 +9°C° 0 mm 1 mps 706 mmHg 83%
02:00 +9°C° 0 mm 1 mps 706 mmHg 83%
03:00 +9°C° 0 mm 1 mps 706 mmHg 83%
04:00 +8°C° 0 mm 0 mps 706 mmHg 84%
05:00 +9°C° 0.8 mm 1 mps 705 mmHg 87%
06:00 +9°C° 0.8 mm 1 mps 705 mmHg 91%
07:00 +7°C° 0.8 mm 2 mps 705 mmHg 95%
08:00 +7°C° 2.5 mm 2 mps 705 mmHg 96%
09:00 +7°C° 2.5 mm 1 mps 705 mmHg 96%
10:00 +6°C° 2.5 mm 1 mps 705 mmHg 97%
11:00 +6°C° 1.3 mm 1 mps 705 mmHg 97%
12:00 +7°C° 1.3 mm 1 mps 705 mmHg 97%
13:00 +7°C° 1.3 mm 1 mps 705 mmHg 97%
14:00 +6°C° 1.7 mm 1 mps 705 mmHg 97%
15:00 +6°C° 1.7 mm 1 mps 705 mmHg 97%
16:00 +6°C° 1.7 mm 1 mps 704 mmHg 98%
17:00 +6°C° 1.5 mm 1 mps 705 mmHg 98%
18:00 +5°C° 1.5 mm 0 mps 705 mmHg 98%
19:00 +5°C° 1.5 mm 0 mps 705 mmHg 98%
20:00 +5°C° 1.7 mm 0 mps 705 mmHg 98%
21:00 +6°C° 1.7 mm 1 mps 706 mmHg 98%
22:00 +6°C° 1.7 mm 1 mps 706 mmHg 98%
23:00 +6°C° 1.4 mm 1 mps 706 mmHg 98%

27 Octubre, Martes

Tiempo Temperatura Precipitaciones Viento Presión Humedad
00:00 +5°C° 1.4 mm 1 mps 706 mmHg 98%
01:00 +4°C° 1.4 mm 0 mps 706 mmHg 98%
02:00 +4°C° 1 mm 0 mps 706 mmHg 98%
03:00 +4°C° 1 mm 0 mps 706 mmHg 98%
04:00 +4°C° 1 mm 0 mps 706 mmHg 98%
05:00 +5°C° 0.9 mm 0 mps 707 mmHg 98%
06:00 +6°C° 0.9 mm 1 mps 707 mmHg 98%
07:00 +6°C° 0.9 mm 1 mps 708 mmHg 98%
08:00 +6°C° 0.8 mm 1 mps 708 mmHg 98%
09:00 +6°C° 0.8 mm 1 mps 708 mmHg 97%
10:00 +6°C° 0.8 mm 1 mps 708 mmHg 97%
11:00 +6°C° 0.5 mm 1 mps 709 mmHg 97%
12:00 +7°C° 0.5 mm 1 mps 709 mmHg 97%
13:00 +6°C° 0.5 mm 0 mps 709 mmHg 96%
14:00 +6°C° 0.2 mm 0 mps 709 mmHg 97%
15:00 +6°C° 0.2 mm 0 mps 709 mmHg 97%
16:00 +6°C° 0.2 mm 0 mps 710 mmHg 97%
17:00 +6°C° 0 mm 0 mps 710 mmHg 97%
18:00 +6°C° 0 mm 0 mps 710 mmHg 97%
19:00 +5°C° 0 mm 0 mps 711 mmHg 97%
20:00 +5°C° 0 mm 0 mps 711 mmHg 96%
21:00 +5°C° 0 mm 0 mps 711 mmHg 95%
22:00 +5°C° 0 mm 0 mps 712 mmHg 95%
23:00 +5°C° 0 mm 1 mps 712 mmHg 94%
Mostrar más

Necesitamos Su Consentimiento

Meteoprog y nuestros Proveedores de Servicios pueden almacenar y acceder a sus datos personales como cookies, identificadores de dispositivo u otras tecnologías similares de su dispositivo y procesar dichos datos para personalizar contenido y anuncios, además de ofrecer funciones de redes sociales y analizar el tráfico.

  • Almacenar y/o acceder a información en su dispositivo

    Se puede almacenar o acceder a cookies, identificadores de dispositivo u otra información de su dispositivo para los fines anteriormente indicados.

  • Anuncios y contenido personalizados, medición de anuncios y contenido, percepciones del público, y desarrollo de productos

    Los anuncios y el contenido pueden personalizarse en base a su perfil. Se pueden añadir más datos para personalizar mejor los anuncios y contenidos. Se puede medir el rendimiento de los anuncios y contenidos. Se puede obtener la percepción sobre el público que ha visto los anuncios y contenidos. Dichos datos pueden usarse para desarrollar o mejorar la experiencia del usuario, sistemas y software.

Al hacer clic en ‘Estoy De Acuerdo’ usted permitirá el uso de las cookies, identificadores de dispositivo, balizas web u otras tecnologías similares indicadas. Su configuración puede cambiarse desde el navegador de su dispositivo.

Para ciertos fines, los intereses legítimos pueden ser considerados por encima del consentimiento. Puede leer más sobre ello en nuestra Política de Privacidad y Cookies.